DW2690 Weather Reports


Display with metric or nautical units.
time (UTC)temp
F
wind
direction
speed
MPH
gust
MPH
rain 1hr
in
rain 24hr
in
rain mn
in
humidity
%
barometer
mb
20190716020816 69 219 0.0 1.0 0.00 0.00 0.00 74 1016.1
20190716020325 69 219 0.0 1.0 0.00 0.00 0.00 74 1016.1
20190716015815 69 211 0.0 1.0 0.00 0.00 0.00 73 1016.2
20190716015326 69 213 0.0 3.0 0.00 0.00 0.00 74 1016.2
20190716014814 69 215 2.0 3.0 0.00 0.00 0.00 72 1016.2
20190716014323 70 225 1.0 5.0 0.00 0.00 0.00 73 1016.2
20190716013814 69 228 1.0 5.0 0.00 0.00 0.00 72 1016.2
20190716013323 70 200 0.0 4.0 0.00 0.00 0.00 73 1016.2
20190716012815 70 171 1.0 2.0 0.00 0.00 0.00 72 1016.2
20190716012325 70 172 0.0 2.0 0.00 0.00 0.00 73 1016.3
20190716011814 70 174 0.0 2.0 0.00 0.00 0.00 73 1016.2
20190716011323 70 150 0.0 2.0 0.00 0.00 0.00 73 1016.3
20190716010831 70 146 1.0 2.0 0.00 0.00 0.00 72 1016.3
20190716010320 70 147 1.0 2.0 0.00 0.00 0.00 73 1016.3
20190716005828 70 146 0.0 2.0 0.00 0.00 0.00 71 1016.3
20190716005317 70 184 0.0 4.0 0.00 0.00 0.00 70 1016.3
20190716004829 70 181 1.0 5.0 0.00 0.00 0.00 71 1016.4
20190716004321 70 219 1.0 4.0 0.00 0.00 0.00 71 1016.4
20190716003829 70 205 0.0 2.0 0.00 0.00 0.00 72 1016.5
20190716003318 70 206 0.0 3.0 0.00 0.00 0.00 70 1016.5
20190716002829 70 205 1.0 4.0 0.00 0.00 0.00 69 1016.5
20190716002318 70 194 1.0 4.0 0.00 0.00 0.00 69 1016.5
20190716001827 70 273 0.0 4.0 0.00 0.00 0.00 70 1016.5
20190716001316 70 290 1.0 4.0 0.00 0.00 0.00 71 1016.6
20190716000828 70 212 1.0 3.0 0.00 0.00 0.00 72 1016.5
20190716000317 70 213 0.0 5.0 0.00 0.00 0.00 74 1016.6
20190715235829 70 192 3.0 5.0 0.00 0.00 0.00 72 1016.5
20190715235318 71 217 0.0 3.0 0.00 0.00 0.00 71 1016.6
20190715234826 71 217 2.0 3.0 0.00 0.00 0.00 73 1016.6
20190715234314 71 219 0.0 4.0 0.00 0.00 0.00 70 1016.5
20190715233826 71 219 1.0 5.0 0.00 0.00 0.00 69 1016.6
20190715233315 71 256 1.0 5.0 0.00 0.00 0.00 68 1016.6
20190715232827 71 175 2.0 5.0 0.00 0.00 0.00 68 1016.6
20190715232315 71 227 0.0 3.0 0.00 0.00 0.00 67 1016.6
20190715231823 71 186 0.0 3.0 0.00 0.00 0.00 66 1016.6
20190715231319 71 269 1.0 3.0 0.00 0.00 0.00 67 1016.7
20190715230828 71 192 0.0 3.0 0.00 0.00 0.00 68 1016.6
20190715230317 71 336 0.0 3.0 0.00 0.00 0.00 65 1016.7
20190715225824 72 336 2.0 3.0 0.00 0.00 0.00 64 1016.7
20190715225334 72 210 0.0 3.0 0.00 0.00 0.00 65 1016.7
20190715224822 72 190 0.0 3.0 0.00 0.00 0.00 65 1016.8
20190715224330 72 192 0.0 4.0 0.00 0.00 0.00 64 1016.7
20190715223821 73 205 1.0 4.0 0.00 0.00 0.00 64 1016.7
20190715223314 73 133 1.0 4.0 0.00 0.00 0.00 64 1016.7
20190715222826 73 249 1.0 4.0 0.00 0.00 0.00 63 1016.7
20190715222315 72 113 1.0 5.0 0.00 0.00 0.00 68 1016.7
20190715221827 72 181 1.0 5.0 0.00 0.00 0.00 65 1016.7
20190715221316 72 209 1.0 5.0 0.00 0.00 0.00 66 1016.7
20190715220824 72 174 1.0 4.0 0.00 0.00 0.00 68 1016.8
20190715220333 72 174 1.0 4.0 0.00 0.00 0.00 68 1016.7
20190715215821 71 112 0.0 4.0 0.00 0.00 0.00 70 1016.8
20190715215331 71 266 1.0 4.0 0.00 0.00 0.00 73 1016.9
20190715214823 71 138 2.0 4.0 0.00 0.00 0.00 70 1017.0
20190715214311 71 211 0.0 4.0 0.00 0.00 0.00 72 1017.0
20190715213822 70 215 0.0 4.0 0.00 0.00 0.00 71 1017.0
20190715213312 70 207 0.0 3.0 0.00 0.00 0.00 74 1017.1
20190715212822 70 209 1.0 3.0 0.00 0.00 0.00 70 1017.1
20190715212314 70 207 1.0 2.0 0.00 0.00 0.00 72 1017.1
20190715211826 70 208 0.0 3.0 0.00 0.00 0.00 74 1017.1
20190715211314 70 188 1.0 2.0 0.00 0.00 0.00 73 1017.1
20190715210823 70 195 0.0 5.0 0.00 0.00 0.00 75 1017.1
20190715210315 70 103 0.0 5.0 0.00 0.00 0.00 72 1017.1
20190715205826 70 175 1.0 4.0 0.00 0.00 0.00 75 1017.2
20190715205316 69 105 0.0 3.0 0.00 0.00 0.00 78 1017.2
20190715204827 69 152 0.0 3.0 0.00 0.00 0.00 78 1017.2
20190715204316 68 360 1.0 3.0 0.00 0.00 0.00 78 1017.3
20190715203825 68 136 0.0 2.0 0.00 0.00 0.00 80 1017.3
20190715203333 68 143 0.0 2.0 0.00 0.00 0.00 82 1017.4
20190715202821 67 111 0.0 2.0 0.00 0.00 0.00 81 1017.5
20190715202317 67 111 1.0 2.0 0.00 0.00 0.00 80 1017.6
20190715201826 67 111 0.0 2.0 0.00 0.00 0.00 79 1017.5
20190715201334 67 110 0.0 1.0 0.00 0.00 0.00 77 1017.6
20190715200822 67 110 0.0 1.0 0.00 0.00 0.00 76 1017.5
20190715200331 67 111 0.0 2.0 0.00 0.00 0.00 76 1017.5
20190715195818 68 109 0.0 2.0 0.00 0.00 0.00 77 1017.5
20190715195331 68 109 0.0 5.0 0.00 0.00 0.00 77 1017.6
20190715194819 68 110 1.0 5.0 0.00 0.00 0.00 78 1017.5
20190715194329 67 80 0.0 2.0 0.00 0.00 0.00 78 1017.5
20190715193821 67 75 0.0 2.0 0.00 0.00 0.00 77 1017.6
20190715193333 67 75 0.0 1.0 0.00 0.00 0.00 76 1017.6
20190715192820 67 75 0.0 2.0 0.00 0.00 0.00 75 1017.6
20190715192329 67 76 1.0 2.0 0.00 0.00 0.00 76 1017.6
20190715191818 67 36 0.0 1.0 0.00 0.00 0.00 77 1017.7
20190715191327 67 36 0.0 1.0 0.00 0.00 0.00 75 1017.7
20190715190814 67 36 0.0 1.0 0.00 0.00 0.00 75 1017.7
20190715190323 67 98 0.0 2.0 0.00 0.00 0.00 76 1017.7
20190715185831 66 97 0.0 2.0 0.00 0.00 0.00 76 1017.7
20190715185324 66 96 0.0 1.0 0.00 0.00 0.00 78 1017.7
20190715184812 66 96 0.0 4.0 0.00 0.00 0.00 76 1017.7
20190715184324 66 97 0.0 4.0 0.00 0.00 0.00 76 1017.6
20190715183833 66 72 0.0 2.0 0.00 0.00 0.00 77 1017.6
20190715183321 66 71 1.0 2.0 0.00 0.00 0.00 77 1017.6
20190715182829 66 70 0.0 0.0 0.00 0.00 0.00 80 1017.6
20190715182317 66 69 0.0 0.0 0.00 0.00 0.00 80 1017.6
20190715181826 66 67 0.0 0.0 0.00 0.00 0.00 78 1017.6
20190715181311 66 67 0.0 1.0 0.00 0.00 0.00 78 1017.6
20190715180827 66 68 0.0 2.0 0.00 0.00 0.00 78 1017.6
20190715180316 66 68 0.0 2.0 0.00 0.00 0.00 79 1017.6
20190715175826 66 68 0.0 1.0 0.00 0.00 0.00 78 1017.6
20190715175314 66 68 0.0 1.0 0.00 0.00 0.00 78 1017.5
20190715174826 66 68 0.0 1.0 0.00 0.00 0.00 77 1017.5
20190715174315 66 69 0.0 1.0 0.00 0.00 0.00 76 1017.5
20190715173824 66 70 0.0 2.0 0.00 0.00 0.00 76 1017.5
20190715173333 66 71 1.0 2.0 0.00 0.00 0.00 78 1017.5
20190715172822 66 71 0.0 1.0 0.00 0.00 0.00 79 1017.5
20190715172315 66 70 0.0 2.0 0.00 0.00 0.00 77 1017.6
20190715171823 66 70 0.0 3.0 0.00 0.00 0.00 79 1017.5
20190715171333 66 69 0.0 3.0 0.00 0.00 0.00 78 1017.4
20190715170821 66 85 1.0 3.0 0.00 0.00 0.00 78 1017.4
20190715170330 66 84 0.0 1.0 0.00 0.00 0.00 81 1017.4
20190715165817 65 86 0.0 1.0 0.00 0.00 0.00 80 1017.4
20190715165326 65 88 0.0 2.0 0.00 0.00 0.00 79 1017.4
20190715164814 65 87 0.0 2.0 0.00 0.00 0.00 79 1017.4
20190715164326 65 49 0.0 2.0 0.00 0.00 0.00 80 1017.4
20190715163818 65 49 0.0 2.0 0.00 0.00 0.00 79 1017.4
20190715163327 65 49 0.0 1.0 0.00 0.00 0.00 81 1017.5
20190715162816 65 48 0.0 0.0 0.00 0.00 0.00 80 1017.5
20190715162324 65 48 0.0 1.0 0.00 0.00 0.00 79 1017.5
20190715161832 65 48 1.0 2.0 0.00 0.00 0.00 78 1017.5
20190715161321 65 49 0.0 2.0 0.00 0.00 0.00 81 1017.5
20190715160832 65 49 0.0 1.0 0.00 0.00 0.00 82 1017.5
20190715160321 64 49 0.0 1.0 0.00 0.00 0.00 81 1017.4
20190715155829 64 49 0.0 0.0 0.00 0.00 0.00 82 1017.3
20190715155321 64 50 0.0 0.0 0.00 0.00 0.00 81 1017.3
20190715154833 64 49 0.0 2.0 0.00 0.00 0.00 84 1017.3
20190715154322 63 49 1.0 2.0 0.00 0.00 0.00 82 1017.3
20190715153831 63 49 0.0 0.0 0.00 0.00 0.00 84 1017.2
20190715153319 63 49 0.0 0.0 0.00 0.00 0.00 85 1017.2
20190715152827 62 49 0.0 0.0 0.00 0.00 0.00 86 1017.1
20190715152319 62 49 0.0 0.0 0.00 0.00 0.00 86 1017.1
20190715151828 62 49 0.0 0.0 0.00 0.00 0.00 87 1017.2
20190715151324 62 49 0.0 0.0 0.00 0.00 0.00 87 1017.2
20190715150833 62 49 0.0 0.0 0.00 0.00 0.00 87 1017.2
20190715150322 62 49 0.0 0.0 0.00 0.00 0.00 89 1017.1
20190715145829 61 49 0.0 0.0 0.00 0.00 0.00 89 1017.0
20190715145317 61 49 0.0 0.0 0.00 0.00 0.00 89 1017.0
20190715144826 61 49 0.0 0.0 0.00 0.00 0.00 89 1017.1
20190715144319 61 50 0.0 0.0 0.00 0.00 0.00 90 1017.1
20190715143827 61 54 0.0 0.0 0.00 0.00 0.00 91 1017.0
20190715143316 60 52 0.0 0.0 0.00 0.00 0.00 92 1016.9
20190715142828 60 51 0.0 0.0 0.00 0.00 0.00 91 1016.9
20190715142317 60 52 0.0 0.0 0.00 0.00 0.00 92 1017.0
20190715141825 60 52 0.0 0.0 0.00 0.00 0.00 92 1017.0
20190715141315 60 53 0.0 0.0 0.00 0.00 0.00 92 1017.0
20190715140822 60 52 0.0 0.0 0.00 0.00 0.00 92 1016.9
20190715140330 60 53 0.0 0.0 0.00 0.00 0.00 92 1016.8
20190715135818 60 51 0.0 0.0 0.00 0.00 0.00 92 1016.8
20190715135327 60 52 0.0 0.0 0.00 0.00 0.00 92 1016.8
20190715134816 59 52 0.0 0.0 0.00 0.00 0.00 93 1016.7
20190715134328 59 52 0.0 0.0 0.00 0.00 0.00 92 1016.6
20190715133816 59 51 0.0 0.0 0.00 0.00 0.00 93 1016.5
20190715133326 59 51 0.0 0.0 0.00 0.00 0.00 92 1016.5
20190715132814 59 51 0.0 0.0 0.00 0.00 0.00 92 1016.5
20190715132323 59 49 0.0 0.0 0.00 0.00 0.00 92 1016.6
20190715131832 59 49 0.0 0.0 0.00 0.00 0.00 92 1016.6
20190715131320 59 49 0.0 0.0 0.00 0.00 0.00 92 1016.7
20190715130831 59 49 0.0 0.0 0.00 0.00 0.00 91 1016.8
20190715130320 59 49 0.0 0.0 0.00 0.00 0.00 91 1016.8
20190715125815 59 48 0.0 0.0 0.00 0.00 0.00 91 1016.7
20190715125326 59 49 0.0 0.0 0.00 0.00 0.00 91 1016.8
20190715124815 59 49 0.0 0.0 0.00 0.00 0.00 90 1016.8
20190715124323 59 50 0.0 0.0 0.00 0.00 0.00 90 1016.9
20190715123814 59 49 0.0 0.0 0.00 0.00 0.00 90 1016.9
20190715123324 59 49 0.0 0.0 0.00 0.00 0.00 90 1016.8
20190715122832 59 49 0.0 0.0 0.00 0.00 0.00 90 1016.8
20190715122321 59 49 0.0 0.0 0.00 0.00 0.00 89 1016.8
20190715121815 59 49 0.0 0.0 0.00 0.00 0.00 89 1016.9
20190715121324 59 49 0.0 0.0 0.00 0.00 0.00 88 1017.0
20190715120832 59 49 0.0 0.0 0.00 0.00 0.00 89 1017.1
20190715120320 59 49 0.0 0.0 0.00 0.00 0.00 88 1017.1
20190715115828 60 51 0.0 0.0 0.00 0.00 0.00 87 1017.0
20190715115317 60 51 0.0 0.0 0.00 0.00 0.00 87 1016.7
20190715114829 60 51 0.0 0.0 0.00 0.00 0.00 86 1016.6
20190715114317 60 51 0.0 0.0 0.00 0.00 0.00 86 1016.5
20190715113826 60 49 0.0 0.0 0.00 0.00 0.00 86 1016.5
20190715113318 60 50 0.0 0.0 0.00 0.00 0.00 86 1016.5
20190715112829 60 50 0.0 0.0 0.00 0.00 0.00 86 1016.6
20190715112319 60 50 0.0 0.0 0.00 0.00 0.00 87 1016.6
20190715111830 60 50 0.0 0.0 0.00 0.00 0.00 86 1016.6
20190715111320 60 49 0.0 0.0 0.00 0.00 0.00 87 1016.4
20190715110829 59 50 0.0 0.0 0.00 0.00 0.00 87 1016.4
20190715110317 60 50 0.0 0.0 0.00 0.00 0.00 87 1016.5
20190715105825 59 50 0.0 0.0 0.00 0.00 0.00 86 1016.5
20190715105317 60 49 0.0 0.0 0.00 0.00 0.00 86 1016.5
20190715104830 59 49 0.0 0.0 0.00 0.00 0.00 86 1016.5
20190715104319 59 48 0.0 0.0 0.00 0.00 0.00 86 1016.4
20190715103827 59 49 0.0 0.0 0.00 0.00 0.00 86 1016.4
20190715103315 59 49 0.0 0.0 0.00 0.00 0.00 86 1016.5
20190715102827 59 49 0.0 0.0 0.00 0.00 0.00 86 1016.5
20190715102315 59 50 0.0 0.0 0.00 0.00 0.00 86 1016.5
20190715101824 59 49 0.0 1.0 0.00 0.00 0.00 86 1016.5
20190715101316 60 49 0.0 1.0 0.00 0.00 0.00 85 1016.4
20190715100824 60 48 0.0 0.0 0.00 0.00 0.00 85 1016.3
20190715100316 60 47 0.0 0.0 0.00 0.00 0.00 85 1016.3
20190715095827 60 48 0.0 0.0 0.00 0.00 0.00 85 1016.3
20190715095334 60 48 0.0 0.0 0.00 0.00 0.00 85 1016.4
20190715094823 60 49 0.0 0.0 0.00 0.00 0.00 85 1016.3
20190715094312 60 49 0.0 0.0 0.00 0.00 0.00 85 1016.4
20190715093824 60 49 0.0 0.0 0.00 0.00 0.00 84 1016.4
20190715093333 60 49 0.0 0.0 0.00 0.00 0.00 84 1016.4
20190715092821 60 51 0.0 0.0 0.00 0.00 0.00 84 1016.5
20190715092330 61 50 0.0 0.0 0.00 0.00 0.00 84 1016.5
20190715091822 61 51 0.0 0.0 0.00 0.00 0.00 83 1016.6
20190715091332 61 49 0.0 0.0 0.00 0.00 0.00 83 1016.6
20190715090821 61 49 0.0 0.0 0.00 0.00 0.00 83 1016.6
20190715090330 61 49 0.0 0.0 0.00 0.00 0.00 83 1016.6
20190715085818 61 51 0.0 0.0 0.00 0.00 0.00 83 1016.6
20190715085327 61 49 0.0 1.0 0.00 0.00 0.00 82 1016.7
20190715084815 61 50 0.0 1.0 0.00 0.00 0.00 82 1016.6
20190715084324 61 51 0.0 0.0 0.00 0.00 0.00 82 1016.4
20190715083817 61 50 0.0 1.0 0.00 0.00 0.00 81 1016.3
20190715083326 62 50 0.0 1.0 0.00 0.00 0.00 81 1016.4
20190715082834 62 52 0.0 0.0 0.00 0.00 0.00 81 1016.4
20190715082323 62 51 0.0 0.0 0.00 0.00 0.00 81 1016.4
20190715081831 62 51 0.0 0.0 0.00 0.00 0.00 81 1016.4
20190715081320 62 53 0.0 0.0 0.00 0.00 0.00 81 1016.5
20190715080829 62 53 0.0 0.0 0.00 0.00 0.00 80 1016.5
20190715080318 62 54 0.0 1.0 0.00 0.00 0.00 80 1016.6
20190715075827 62 52 0.0 1.0 0.00 0.00 0.00 79 1016.7
20190715075322 62 52 0.0 0.0 0.00 0.00 0.00 79 1016.6
20190715074831 62 52 0.0 0.0 0.00 0.00 0.00 79 1016.6
20190715074319 62 51 0.0 0.0 0.00 0.00 0.00 79 1016.7
20190715073830 62 51 0.0 1.0 0.00 0.00 0.00 79 1016.7
20190715073319 62 51 0.0 1.0 0.00 0.00 0.00 79 1016.7
20190715072828 62 51 0.0 0.0 0.00 0.00 0.00 78 1016.8
20190715072318 62 52 0.0 0.0 0.00 0.00 0.00 79 1016.8
20190715071827 62 51 0.0 0.0 0.00 0.00 0.00 79 1016.7
20190715071317 62 51 0.0 0.0 0.00 0.00 0.00 79 1016.7
20190715070829 62 53 0.0 0.0 0.00 0.00 0.00 79 1016.8
20190715070318 62 51 0.0 1.0 0.00 0.00 0.00 79 1016.7
20190715065825 62 51 0.0 1.0 0.00 0.00 0.00 80 1016.7
20190715065334 62 50 0.0 1.0 0.00 0.00 0.00 80 1016.7
20190715064822 62 50 0.0 1.0 0.00 0.00 0.00 80 1016.8
20190715064330 62 51 0.0 0.0 0.00 0.00 0.00 79 1016.9
20190715063819 62 51 0.0 0.0 0.00 0.00 0.00 79 1017.0
20190715063331 62 50 0.0 0.0 0.00 0.00 0.00 79 1017.0
20190715062819 62 51 0.0 0.0 0.00 0.00 0.00 79 1017.0
20190715062316 62 51 0.0 0.0 0.00 0.00 0.00 78 1017.0
20190715061824 62 51 0.0 0.0 0.00 0.00 0.00 78 1017.0
20190715061333 63 49 0.0 0.0 0.00 0.00 0.00 78 1017.0
20190715060822 63 50 0.0 0.0 0.00 0.00 0.00 78 1017.0
20190715060330 63 48 0.0 0.0 0.00 0.00 0.00 78 1016.9
20190715055817 63 48 0.0 0.0 0.00 0.00 0.00 78 1017.0
20190715055327 63 47 0.0 1.0 0.00 0.00 0.00 78 1017.0
20190715054815 63 46 0.0 1.0 0.00 0.00 0.00 77 1017.0
20190715054324 64 45 0.0 1.0 0.00 0.00 0.00 78 1016.9
20190715053816 64 46 0.0 0.0 0.00 0.00 0.00 77 1016.9
20190715053330 64 46 0.0 0.0 0.00 0.00 0.00 77 1016.9
20190715052818 64 46 0.0 0.0 0.00 0.00 0.00 77 1016.8
20190715052326 64 46 0.0 1.0 0.00 0.00 0.00 77 1016.8
20190715051835 64 46 0.0 1.0 0.00 0.00 0.00 77 1016.8
20190715051324 65 46 0.0 0.0 0.00 0.00 0.00 76 1016.7
20190715050812 65 46 0.0 0.0 0.00 0.00 0.00 76 1016.7
20190715050323 65 47 0.0 0.0 0.00 0.00 0.00 76 1016.6
20190715045829 65 46 0.0 0.0 0.00 0.00 0.00 75 1016.6
20190715045322 65 48 0.0 1.0 0.00 0.00 0.00 74 1016.6
20190715044830 66 47 0.0 1.0 0.00 0.00 0.00 74 1016.6
20190715044320 66 47 0.0 1.0 0.00 0.00 0.00 73 1016.6
20190715043828 66 46 0.0 0.0 0.00 0.00 0.00 72 1016.6
20190715043317 66 46 0.0 0.0 0.00 0.00 0.00 73 1016.5
20190715042826 66 46 0.0 0.0 0.00 0.00 0.00 71 1016.4
20190715042335 67 46 0.0 0.0 0.00 0.00 0.00 72 1016.4
20190715041823 67 46 0.0 0.0 0.00 0.00 0.00 72 1016.4
20190715041331 67 46 0.0 0.0 0.00 0.00 0.00 71 1016.4
20190715040823 67 46 0.0 1.0 0.00 0.00 0.00 70 1016.3
20190715040332 68 48 0.0 1.0 0.00 0.00 0.00 69 1016.3
20190715035821 68 47 0.0 0.0 0.00 0.00 0.00 69 1016.3
20190715035312 68 48 0.0 0.0 0.00 0.00 0.00 69 1016.3
20190715034823 68 48 0.0 0.0 0.00 0.00 0.00 67 1016.2
20190715034315 69 49 0.0 1.0 0.00 0.00 0.00 66 1016.2
20190715033822 69 48 0.0 1.0 0.00 0.00 0.00 66 1016.3
20190715033331 69 49 0.0 1.0 0.00 0.00 0.00 66 1016.2
20190715032826 69 49 0.0 0.0 0.00 0.00 0.00 66 1016.3
20190715032334 70 49 0.0 0.0 0.00 0.00 0.00 64 1016.2
20190715031821 70 49 0.0 0.0 0.00 0.00 0.00 64 1016.3
20190715031331 70 48 0.0 1.0 0.00 0.00 0.00 63 1016.3
20190715030819 70 49 0.0 1.0 0.00 0.00 0.00 65 1016.2
20190715030327 71 49 0.0 1.0 0.00 0.00 0.00 63 1016.3
20190715025836 71 49 0.0 1.0 0.00 0.00 0.00 62 1016.3
20190715025320 71 49 0.0 1.0 0.00 0.00 0.00 62 1016.3
20190715024827 71 49 0.0 1.0 0.00 0.00 0.00 61 1016.2
20190715024322 72 49 0.0 1.0 0.00 0.00 0.00 58 1016.3
20190715023834 72 48 0.0 0.0 0.00 0.00 0.00 57 1016.3
20190715023322 72 46 0.0 1.0 0.00 0.00 0.00 57 1016.3
20190715022831 73 45 0.0 1.0 0.00 0.00 0.00 55 1016.3
20190715022320 73 45 0.0 1.0 0.00 0.00 0.00 54 1016.3
20190715021828 73 42 0.0 1.0 0.00 0.00 0.00 54 1016.3
20190715021318 73 42 0.0 1.0 0.00 0.00 0.00 52 1016.3